Branson, MO

1:11 PM CDT on June 28, 2017 (GMT -0500)
Branson

Weather History for KBBG - December, 2012

Change the Weather History Date:

Monday, December 24, 2012

  Actual Average (KHRO) Record (KHRO)
Temperature  
Mean Temperature 35 °F -  
Max Temperature 44 °F 44 °F 82 °F (1955)
Min Temperature 26 °F 24 °F -6 °F (1983)
Degree Days  
Heating Degree Days 30    
Moisture  
Dew Point 27 °F    
Average Humidity 78    
Maximum Humidity 93    
Minimum Humidity 56    
Precipitation  
Precipitation 0.00 in - - ()
Sea Level Pressure  
Sea Level Pressure 29.94 in    
Wind  
Wind Speed 6 mph (NNW)    
Max Wind Speed 13 mph    
Max Gust Speed 16 mph    
Visibility 7 miles    
Events      
Averages and records for this station are not official NWS values.
T = Trace of Precipitation, MM = Missing Value Source: NWS Daily Summary

Daily Weather History Graph

Daily Weather History Graph

Search for Another Location

Airport or City:

Trip Planner

Search our weather history database for the weather conditions in past years. The results will help you decide how hot, cold, wet, or windy it might be!

Date:

Astronomy

Dec. 24, 2012 Rise Set
Actual Time 7:22 AM CST 5:02 PM CST
Civil Twilight 6:53 AM CST 5:31 PM CST
Nautical Twilight 6:21 AM CST 6:04 PM CST
Astronomical Twilight 5:49 AM CST 6:35 PM CST
Moon 2:28 PM CST (12/24) 4:03 AM CST (12/24)
Length of Visible Light 10h 37m
Length of Day
9h 40m
Waxing Gibbous, 88% of the Moon is Illuminated
Dec 24
Waxing Gibbous
Dec 28
Full
Jan 4
Last Quarter
Jan 11
New
Jan 18
First Quarter

Hourly Weather History & Observations

Time (CST) Temp. Windchill Dew Point Humidity Pressure Visibility Wind Dir Wind Speed Gust Speed Precip Events Conditions
12:15 AM 44.6 °F 40.2 °F 35.6 °F 71% 29.83 in 10.0 mi NW 8.1 mph - N/A   Mostly Cloudy
12:35 AM 42.8 °F 39.3 °F 35.6 °F 76% 29.83 in 10.0 mi NW 5.8 mph - N/A   Mostly Cloudy
12:55 AM 41.0 °F 38.0 °F 33.8 °F 76% 29.83 in 10.0 mi NW 4.6 mph - N/A   Mostly Cloudy
1:15 AM 39.2 °F 34.2 °F 32.0 °F 75% 29.84 in 10.0 mi WNW 6.9 mph - N/A   Scattered Clouds
1:35 AM 39.2 °F - 32.0 °F 75% 29.83 in 10.0 mi Calm Calm - N/A   Mostly Cloudy
1:55 AM 39.2 °F 35.0 °F 32.0 °F 75% 29.84 in 10.0 mi WNW 5.8 mph - N/A   Mostly Cloudy
2:15 AM 39.2 °F 33.0 °F 32.0 °F 75% 29.86 in 10.0 mi NW 9.2 mph - N/A   Overcast
2:35 AM 37.4 °F 33.8 °F 32.0 °F 81% 29.86 in 10.0 mi WNW 4.6 mph - N/A   Overcast
2:55 AM 37.4 °F 31.4 °F 32.0 °F 81% 29.87 in 10.0 mi NW 8.1 mph - N/A   Mostly Cloudy
3:15 AM 35.6 °F 30.7 °F 30.2 °F 81% 29.86 in 9.0 mi NW 5.8 mph - N/A   Partly Cloudy
3:35 AM 35.6 °F 31.7 °F 30.2 °F 81% 29.87 in 8.0 mi WNW 4.6 mph - N/A   Clear
3:55 AM 33.8 °F 25.8 °F 30.2 °F 87% 29.88 in 8.0 mi NW 10.4 mph - N/A   Clear
4:15 AM 32.0 °F 22.5 °F 30.2 °F 93% 29.89 in 7.0 mi NW 12.7 mph - N/A   Scattered Clouds
4:35 AM 32.0 °F 26.4 °F 28.4 °F 87% 29.87 in 6.0 mi NW 5.8 mph - N/A   Scattered Clouds
4:55 AM 32.0 °F 23.6 °F 28.4 °F 87% 29.88 in 6.0 mi NW 10.4 mph - N/A   Clear
5:15 AM 32.0 °F 26.4 °F 28.4 °F 87% 29.91 in 5.0 mi WNW 5.8 mph - N/A   Partly Cloudy
5:35 AM 32.0 °F 25.6 °F 26.6 °F 80% 29.92 in 5.0 mi NW 6.9 mph - N/A   Clear
6:57 AM 28.4 °F 18.5 °F 24.8 °F 86% 29.95 in 5.0 mi NW 11.5 mph 16.1 mph N/A   Scattered Clouds
7:45 AM 26.6 °F 18.2 °F 23.0 °F 86% 30.00 in 5.0 mi WNW 8.1 mph - N/A   Clear
8:45 AM 28.4 °F 21.2 °F 24.8 °F 86% 30.01 in 6.0 mi West 6.9 mph - N/A   Partly Cloudy
9:45 AM 32.0 °F 25.6 °F 23.0 °F 69% 30.01 in 8.0 mi NW 6.9 mph - N/A   Partly Cloudy
10:47 AM 32.0 °F 24.8 °F 23.0 °F 69% 30.00 in 8.0 mi NW 8.1 mph - N/A   Mostly Cloudy
11:50 AM 32.0 °F 26.4 °F 23.0 °F 69% 29.98 in 7.0 mi WNW 5.8 mph - N/A   Overcast
12:50 PM 37.4 °F 33.8 °F 24.8 °F 60% 29.96 in 7.0 mi NNW 4.6 mph - N/A   Overcast
1:50 PM 39.2 °F 35.0 °F 24.8 °F 56% 29.95 in 9.0 mi NNW 5.8 mph - N/A   Overcast
2:55 PM 39.2 °F 35.9 °F 24.8 °F 56% 29.94 in 9.0 mi WNW 4.6 mph - N/A   Overcast
3:45 PM 39.2 °F 33.6 °F 24.8 °F 56% 29.96 in 9.0 mi NNW 8.1 mph - N/A   Mostly Cloudy
4:50 PM 37.4 °F 31.4 °F 24.8 °F 60% 29.98 in 8.0 mi NNW 8.1 mph - N/A   Overcast
5:55 PM 32.0 °F 26.4 °F 24.8 °F 75% 30.00 in 7.0 mi NNW 5.8 mph - N/A   Overcast
6:45 PM 32.0 °F 25.6 °F 24.8 °F 75% 30.00 in 7.0 mi North 6.9 mph - N/A   Overcast
8:15 PM 30.2 °F 25.4 °F 24.8 °F 80% 30.00 in 6.0 mi North 4.6 mph - N/A   Haze
8:35 PM 30.2 °F 25.4 °F 24.8 °F 80% 30.00 in 5.0 mi North 4.6 mph - N/A   Haze
8:49 PM 30.2 °F - 24.8 °F 80% 30.00 in 7.0 mi Calm Calm - N/A   Overcast
8:55 PM 30.2 °F - 24.8 °F 80% 30.01 in 6.0 mi Calm Calm - N/A   Overcast
9:15 PM 28.4 °F 23.3 °F 24.8 °F 86% 30.00 in 5.0 mi NNE 4.6 mph - N/A   Haze
9:35 PM 28.4 °F 24.6 °F 24.8 °F 86% 30.01 in 5.0 mi NNE 3.5 mph - N/A   Haze
9:55 PM 28.4 °F 22.2 °F 24.8 °F 86% 30.00 in 5.0 mi NNE 5.8 mph - N/A   Haze
10:15 PM 28.4 °F 23.3 °F 23.0 °F 80% 30.00 in 5.0 mi NNE 4.6 mph - N/A   Haze
10:35 PM 28.4 °F 24.6 °F 23.0 °F 80% 30.02 in 5.0 mi North 3.5 mph - N/A   Haze
10:55 PM 28.4 °F 22.2 °F 23.0 °F 80% 30.01 in 5.0 mi NNE 5.8 mph - N/A   Haze
11:15 PM 26.6 °F 20.0 °F 23.0 °F 86% 30.00 in 5.0 mi NNE 5.8 mph - N/A   Haze
11:35 PM 26.6 °F 19.1 °F 21.2 °F 80% 30.00 in 5.0 mi NNE 6.9 mph - N/A   Haze
11:55 PM 26.6 °F 20.0 °F 21.2 °F 80% 30.01 in 5.0 mi NE 5.8 mph - N/A   Haze